Regional Weather Roundup
Issued by NWS

Home | Current Version | Previous Version | Text Only | Print | Product List | Glossary Off
Versions: 1 2 3 4 5 6 7 8 9 10 11 12 13 14 15 16 17 18 19 20 21 22 23 24 25 26 27 28 29 30 31 32 33 34 35 36 37 38 39 40 41 42 43 44 45 46 47 48 49 50

000
ASUS45 KPSR 040310
RWRAZ

ARIZONA HOURLY REGIONAL WEATHER ROUNDUP
NATIONAL WEATHER SERVICE PHOENIX AZ
800 PM MST THU SEP 03 2015

NOTE: FAIR INDICATES FEW OR NO CLOUDS BELOW 12,000 FEET WITH NO
SIGNIFICANT WEATHER AND/OR OBSTRUCTIONS TO VISIBILITY.

AZZ001>003-036-040400-
NORTHWEST ARIZONA

CITY           SKY/WX    TMP DP  RH WIND       PRES   REMARKS
BULLHEAD CITY  CLEAR     99  41  13 S16       29.65R
KINGMAN        CLEAR     83  35  18 SW14      29.88R
$$

AZZ004>008-015-016-018-040400-
NORTH CENTRAL ARIZONA

CITY           SKY/WX    TMP DP  RH WIND       PRES   REMARKS
GRAND CANYON   CLEAR     67  38  34 SW9       30.13R
WILLIAMS       PTCLDY    66  41  39 S10       30.20R
PRESCOTT       MOCLDY    76  48  37 S9        30.04R
FLAGSTAFF      MOCLDY    65  40  39 SW8       30.19R
PAYSON         MOCLDY    70  57  64 VRB6G12   30.10R
PAGE           PTCLDY    84  36  18 S7        29.89R
$$

AZZ009>014-017-040400-
NORTHEAST ARIZONA

CITY           SKY/WX    TMP DP  RH WIND       PRES   REMARKS
WINSLOW        MOCLDY    66  57  72 E10       30.08R
SAINT JOHNS    LGT RAIN  59  56  89 S10       30.16R
WINDOW ROCK    CLOUDY    65  45  48 S13G21    30.17F
SHOW LOW       CLOUDY    63  52  67 SE13      30.18R
$$

AZZ023-040400-
GREATER PHOENIX AREA

CITY           SKY/WX    TMP DP  RH WIND       PRES   REMARKS
PHOENIX        MOCLDY    77  66  68 SE12G22   29.86R
BUCKEYE        CLOUDY    77  66  69 SE5       29.84R
GLENDALE       MOCLDY    84  61  45 SE5       29.87R
LUKE AFB       CLOUDY    83  62  48 S16       29.84R
DEER VALLEY    MOCLDY    78  63  59 SE9       29.90R
SCOTTSDALE     PTCLDY    78  64  61 VRB6      29.91R
MESA-FALCON    MOCLDY    77  63  61 SE17      29.88
MESA-GATEWAY   MOCLDY    75  64  69 E14G23    29.91R
CHANDLER       MOCLDY    77  64  65 S17       29.88R
$$

AZZ027-028-040400-
SOUTHWEST MARICOPA COUNTY AND PINAL COUNTY

CITY           SKY/WX    TMP DP  RH WIND       PRES   REMARKS
CASA GRANDE    CLOUDY    73  64  73 S20G25    29.83F
GILA BEND      CLEAR     80  62  53 S21G26    29.80R
$$

AZZ503-504-507>509-040400-
SOUTHEAST ARIZONA

CITY           SKY/WX    TMP DP  RH WIND       PRES   REMARKS
TUCSON         CLOUDY    70  64  81 NW5       29.98F
DAVIS-MONTHAN  CLOUDY    70  65  83 VRB6      29.95F
RYAN FIELD     CLEAR     72  70  94 NE7       29.97F
NOGALES        LGT RAIN  67  64  90 S5        30.03F
SIERRA VISTA   MOCLDY    64  62  93 SE6       30.11S
DOUGLAS        PTCLDY    65  60  84 NW8       30.08R
SAFFORD        CLOUDY    76  58  53 E13       29.96R
$$

AZZ020-021-025-026-031-040400-
SOUTHWEST ARIZONA

CITY           SKY/WX    TMP DP  RH WIND       PRES   REMARKS
YUMA           MOCLDY    94  53  25 S25       29.70R
$$

CAZ031-033-041-043-047-048-061-040400-
SOUTHERN CALIFORNIA

CITY           SKY/WX    TMP DP  RH WIND       PRES   REMARKS
DOWNTOWN L.A.  CLEAR     70  56  61 VRB3      29.82S
L.A. AIRPORT   PTCLDY    69  56  62 W6        29.83S
SAN DIEGO      PTCLDY    71  58  63 NW6       29.86R
BURBANK        CLEAR     69  57  65 S5        29.83R
ONTARIO        CLEAR     70  56  61 W13       29.83R
RIVERSIDE      CLEAR     71  57  61 W7        29.83R
PALM SPRINGS   CLEAR     91  41  17 NW18G28   29.69R
EL CENTRO NAS  CLEAR     92  44  19 W16       29.67R
IMPERIAL       CLEAR     93  46  19 W8        29.65R
BLYTHE         CLEAR     97  37  12 W12       29.67R
NEEDLES        CLEAR     98  28   8 SW12      29.68R
$$

NVZ020-UTZ003-040400-
SOUTHERN NEVADA-UTAH

CITY           SKY/WX    TMP DP  RH WIND       PRES   REMARKS
LAS VEGAS      PTCLDY    92  32  12 SW9       29.68R
SALT LAKE CITY PTCLDY    83  31  15 S16       29.75R
$$

NMZ009-TXZ055-040400-
NEW MEXICO-WEST TEXAS

CITY           SKY/WX    TMP DP  RH WIND       PRES   REMARKS
ALBUQUERQUE    MOCLDY    80  44  27 SW18      30.06R
EL PASO        CLOUDY    84  52  33 W6        30.00R
$$


........................KEY........................
SKY/WX - SKY CONDITION/WEATHER
TMP    - TEMPERATURE IN FAHRENHEIT
DP     - DEW POINT IN FAHRENHEIT
RH     - RELATIVE HUMIDITY IN PERCENT
WIND   - DIRECTION AND SPEED IN MILES PER HOUR (MPH)
VRB    - VARIABLE WIND DIRECTION
PRES   - MEAN SEA LEVEL PRESSURE IN INCHES OF MERCURY
         F - FALLING PRESSURE   R - RISING PRESSURE
         S - STEADY PRESSURE
VSB    - VISIBILITY IN MILES
HX     - HEAT INDEX IN FAHRENHEIT
WCI    - WIND CHILL INDEX IN FAHRENHEIT
TC     - TEMPERATURE IN CELSIUS WHICH IS ALSO KNOWN AS
         TEMPERATURE IN CENTIGRADE
AFB    - AIR FORCE BASE
         LUKE AFB IS LUKE AIR FORCE BASE
         DAVIS-MONTHAN IS DAVIS-MONTHAN AIR FORCE BASE
NAS    - NAVAL AIR STATION
         EL CENTRO NAS IS EL CENTRO NAVAL AIR STATION
N/A    - NOT AVAILABLE



USA.gov is the U.S. government's official web portal to all federal, state and local government web resources and services.